Weather in Chernaya

Ukraine / Khmelnitsky District     48°56′15″N   26°28′27″E
temp.,
°C
wind,
m/s
gust,
m/s
humid.,
%
clouds,
%
prec.,
mm/h
press.,
hPa
HPBL,
m
27 january, wed
wed2723:00−2wnw5128340 0.0 1011568
02:00−3wnw398770 0.0 1012461
05:00−2nw4985100 0.0 1011583
08:00−2nw5879100 0.0 1011801
11:00−1nw5776100 0.0 1011783
14:00−1nnw6874100 0.0 1009792
17:00−1nw6978100 0.0 1009889
20:00−2nnw51083100 0.0 1008712
28 january, thu
thu2823:00−2nnw71187100 0.0 1008749
02:00−2nnw71185100 0.1 1007790
05:00−2nnw71284100 0.1 1006885
08:00−3nw81384100 0.1 1006746
11:00−2nw81280100 0.0 1006861
14:00−1nw91276100 0.1 1005883
17:00−2nw71180100 0.0 1005807
20:00−3nw61080100 0.1 1005627
29 january, fri
fri2923:00−4nw4108445 0.0 1004378
02:00−4w387872 0.0 1003285
05:00−3wsw3866100 0.0 1001290
08:00−2sw3766100 0.0 1001294
11:00−1wsw5992100 0.8 1000569
14:00+1w5982100 1.3 999893
17:00−1wnw238499 0.0 100065
20:00−1ese118999 0.0 100021
30 january, sat
sat3023:00−2se348992 0.0 99995
02:00−1sse5109496 0.3 996298
05:000sse61381100 0.2 993304
08:00+1s61191100 1.1 992292
11:000w71187100 0.9 993532
14:00−1nw7117691 0.9 994767
17:00−2nw598190 0.0 997831
20:00−3wnw599392 0.4 998660
31 january, sun
sun3123:00−3wnw5108693 0.1 1000635
02:00−4w489086 0.1 1003430
05:00−4wnw598678 0.0 1004584
08:00−5wnw388748 0.0 1006403
11:00−4w35770 0.0 1008445
14:00−2w346618 0.0 1008508
17:00−3wsw117399 0.0 100821
20:00−4n1175100 0.0 101021